Regional Weather Roundup
Issued by NWS Cleveland, OH

Home | Current Version | Previous Version | Text Only | Print | Product List | Glossary Off
Versions: 1 2 3 4 5 6 7 8 9 10 11 12 13 14 15 16 17 18 19 20 21 22 23 24 25 26 27 28 29 30 31 32 33 34 35 36 37 38 39 40 41 42 43 44 45 46 47 48 49 50

000
ASUS41 KCLE 280610
RWRCLE
OHIO REGIONAL WEATHER ROUNDUP
NATIONAL WEATHER SERVICE WILMINGTON, OH
100 AM EST FRI NOV 28 2014

NOTE: "FAIR" INDICATES FEW OR NO CLOUDS BELOW 12,000 FEET WITH NO
SIGNIFICANT WEATHER AND/OR OBSTRUCTIONS TO VISIBILITY.

OHZ001>008-015>018-024>027-034-035-043-044-280700-
   NORTHWEST OHIO

CITY           SKY/WX    TMP DP  RH WIND       PRES   REMARKS
DEFIANCE       CLOUDY    25  16  68 NW8       30.35S WCI  16
FINDLAY        CLOUDY    27  18  69 NW7       30.32S WCI  19
TOLEDO EXPRESS CLOUDY    22  14  71 W6        30.33S WCI  14
TOLEDO METCALF CLEAR     21  14  74 NW7       30.33S WCI  12
LIMA           MOCLDY    27  21  78 W12       30.33S WCI  17
$$

OHZ009>014-019>023-028>033-038-089-280700-
   NORTHEAST OHIO

CITY           SKY/WX    TMP DP  RH WIND       PRES   REMARKS
CLE-HOPKINS    MOCLDY    26  17  68 NW9       30.28F WCI  17
CLE-LAKEFRONT  CLOUDY    30  19  63 NW20G29   30.26S WCI  17
CUY CO. ARPT   NOT AVBL
LORAIN-ELYRIA  CLOUDY    27  19  72 NW9       30.28R WCI  18
ASHTABULA      CLOUDY    28  17  63 NW7       30.22S WCI  21
AKRON-CANTON   LGT SNOW  28  23  80 W10       30.23S WCI  19
WOOSTER        PTCLDY    25  21  85 NW9       30.26S WCI  15
MANSFIELD      CLOUDY    25  23  92 W8        30.27R WCI  16
YOUNGSTOWN     FLURRIES  27  23  85 NW8       30.20R WCI  19
$$

OHZ042-051>053-060>062-070>072-077>081-280700-
  SOUTHWEST OHIO

CITY           SKY/WX    TMP DP  RH WIND       PRES   REMARKS
CINC-COVINGTON FLURRIES  27  14  58 W7        30.38F WCI  19
CINC-LUNKEN    CLOUDY    28  16  60 NW8       30.42S WCI  20
HAMILTON       CLOUDY    28  16  60 W8        30.41S WCI  20
DAYTON         CLOUDY    25  18  74 W10       30.36F WCI  15
WRIGHT-PAT AFB FLURRIES  26  18  71 W8        30.36F WCI  18
DAYTON GENERAL CLOUDY    26  16  65 W8        30.36S WCI  18
WILMINGTON     LGT SNOW  26  20  77 NW6       30.35S WCI  19
$$

OHZ036-037-039>041-045>050-054>059-063>069-073>076-082>088-280700-
  CENTRAL AND SOUTHEAST OHIO

CITY           SKY/WX    TMP DP  RH WIND       PRES   REMARKS
COLUMBUS       CLOUDY    28  20  71 W13       30.33S WCI  17
OSU AIRPORT    CLOUDY    27  21  78 W12       30.32F WCI  17
BOLTON FIELD   NOT AVBL
RICKENBACK AFB CLOUDY    28  22  78 W14       30.34R WCI  17
NEWARK         CLOUDY    29  21  72 W10       30.30F WCI  20
MARION         CLOUDY    27  21  78 NW12      30.31R WCI  17
LANCASTER      CLOUDY    28  22  78 W8        30.33S WCI  20
ZANESVILLE     CLOUDY    28  20  71 W9        30.29F WCI  19
NEW PHILLY     CLOUDY    30  23  75 W7        30.27S WCI  23
$$


USA.gov is the U.S. government's official web portal to all federal, state and local government web resources and services.